Погода в Бирле

Россия / Ульяновская область     53°55′09″N   49°14′34″E
темп.,
°C
ветер,
м/с
пор.,
м/с
влажн.,
%
обл.,
%
осадки,
мм/ч
давл.,
гПа
погр.,
м
7 марта, вс
вс701:00−14юз228632 0.0 101320
04:00−15зсз128934 0.0 101320
07:00−15зсз129783 0.0 101220
10:00−12зюз129585 0.1 101266
13:00−8ююз238981 0.0 1011264
16:00−6ююз478355 0.0 1009231
19:00−8ю7128898 0.0 1007277
22:00−7ююз9159499 0.5 1005702
8 марта, пн
пн801:00−5ююз101694100 0.8 1000746
04:00−4ююз101789100 1.4 997858
07:00−3юз101792100 0.2 995738
10:00−5зюз7147867 0.5 998588
13:00−3зюз8137214 0.0 10011262
16:00−3зюз6117625 0.1 1002606
19:00−7юз458577 0.0 100345
22:00−9ююз459074 0.0 100356
9 марта, вт
вт901:00−7юз6993100 0.8 1003218
04:00−10з598983 0.8 1003139
07:00−12з589129 0.0 1006125
10:00−11зсз489125 0.0 1008226
13:00−9сз368910 0.0 1009339
16:00−9сз469032 0.0 1010260
19:00−13ссз349387 0.0 101135
22:00−14сз349693 0.0 101244
10 марта, ср
ср1001:00−16сз459599 0.0 101273
04:00−15сз479499 0.1 1013211
07:00−19сз589791 0.0 1014144
10:00−19сз699481 0.1 1016302
13:00−17сз689193 0.0 1017421
16:00−18сз699095 0.0 1018484
19:00−22сз599391 0.0 1020154
22:00−24сз479665 0.0 1022105
11 марта, чт
чт1101:00−26сз46976 0.0 102377
04:00−26сз45973 0.0 102566
07:00−26зсз34968 0.0 102542
10:00−22з369118 0.0 1025257
13:00−16з478781 0.0 1024444
16:00−12зсз5118490 0.2 1024674
19:00−13зсз498795 0.0 1024220
22:00−13зсз5119091 0.1 1026275